Location: Newark
(25.4297°S, 49.2719°W)
Time: 09:51:55
(UTC+00:00)

Vanguard 1 Rocket - Pass Details

Date: 29 November 2019
Orbit: 650 x 4226 km, 34.3° (Epoch: 15 December)

Event Time Altitude Azimuth Distance (km) Brightness Sun altitude
Rises 21:27:48 0° 245° (WSW) 8,191 15.3 4.3°
Reaches altitude 10° 21:33:15 10° 247° (WSW) 7,341 14.8 3.2°
Maximum altitude 21:59:27 69° 323° (NW) 3,981 10.7 -2.2°
Drops below altitude 10° 22:17:31 10° 43° (NE) 5,356 10.7 -5.9°
Enters shadow 22:19:30 - 45° (NE) 5,728 10.9 -6.3°
Sets 22:20:48 0° 46° (NE) 5,989 - -6.5°
